Temperature
22 21 21 20 20 19 19 18 18 18 18 18 18 18 17 17 17 17 17 18 18 17 17 17 17 17 17 17 17 17 17 17 17 17 17 17 17 17 16 16 16 16 16
21 21 20 20 19 19 19 19 18 18 18 18 18 18 18 17 17 17 17 17 17 17 17 17 17 17 17 17 17 17 17 17 17 17 17 17 16 17 17 16 16 16 16
21 20 20 20 19 19 19 19 18 18 18 18 18 17 17 17 17 17 17 17 17 17 17 17 17 17 17 17 17 17 17 17 17 17 17 17 17 17 17 17 16 16 16
21 21 20 20 19 19 19 18 18 18 18 18 18 17 17 17 18 18 17 17 17 17 17 17 17 17 17 17 17 16 16 16 17 17 17 17 17 17 17 17 16 16 16
21 21 20 20 19 19 19 18 18 18 18 18 18 18 18 18 18 17 17 17 17 17 17 17 17 17 17 17 16 16 16 16 17 17 17 17 17 17 17 17 17 16 16
21 21 20 20 19 19 18 18 18 18 18 18 18 18 18 17 17 17 17 17 17 17 17 17 17 17 17 16 16 16 16 16 16 17 17 17 17 17 17 17 17 17 17
21 20 20 19 19 19 18 18 18 18 18 17 18 17 17 17 18 18 17 17 17 17 17 17 17 17 17 16 16 16 16 16 16 16 17 17 17 17 17 17 17 17 17
21 21 20 20 19 19 18 18 18 18 17 17 17 17 17 17 17 18 18 18 18 17 17 17 17 17 17 16 16 16 16 16 16 16 16 16 17 17 17 17 17 17 17
20 20 20 19 19 19 18 18 18 18 18 18 17 17 17 17 17 17 18 17 17 17 17 17 17 17 16 16 16 16 16 16 16 16 16 16 16 17 17 17 17 17 17
20 20 20 19 19 19 18 18 18 18 18 17 17 17 17 17 17 17 17 17 17 17 17 17 17 17 17 16 16 16 16 16 16 16 16 16 16 16 16 16 16 16 16
20 20 20 19 19 19 18 18 18 18 17 17 17 17 17 17 17 17 17 17 17 17 17 17 17 17 17 16 16 16 16 16 16 16 16 16 16 16 16 16 16 16 16
21 20 20 19 19 19 18 18 18 18 18 17 17 17 17 17 17 17 17 17 17 17 17 17 17 17 17 17 16 16 16 16 16 16 16 16 16 16 16 16 16 16 16
20 20 19 19 19 19 18 18 18 18 18 17 17 17 17 17 17 17 17 17 17 17 17 17 17 17 17 17 16 16 16 16 16 16 16 16 16 16 16 15 15 15 15
20 20 19 19 19 19 19 18 18 18 17 17 17 17 17 17 17 17 17 17 17 17 17 17 17 17 17 16 16 16 16 16 16 16 16 16 15 15 15 15 15 15 15
20 19 19 19 19 19 19 18 18 18 17 17 17 17 17 17 17 17 17 17 17 17 17 17 16 16 16 16 16 16 16 16 16 16 15 15 15 15 15 15 15 15 15
19 19 19 19 19 19 19 18 18 18 17 17 17 17 17 17 17 17 17 17 17 17 16 16 16 16 16 16 16 16 16 16 16 15 15 15 15 15 15 15 14 14 14
19 19 19 19 19 19 19 19 18 18 18 17 17 17 17 17 17 17 17 16 16 16 16 16 16 16 16 16 16 16 16 15 15 15 15 15 15 14 14 14 14 14 14
19 19 19 19 19 19 19 19 18 18 18 17 17 17 17 17 17 17 16 16 16 16 16 16 16 16 16 16 15 15 15 15 15 15 15 14 14 14 14 14 13 13 13
18 18 19 19 18 18 18 18 18 18 18 17 17 17 17 17 16 16 16 16 16 16 16 16 15 15 15 15 15 15 15 15 14 14 14 14 14 14 13 13 13 13 13
18 18 18 18 18 18 18 18 18 18 17 17 17 17 17 16 16 16 16 16 16 15 15 15 15 15 15 14 14 14 14 14 14 14 13 13 13 13 13 12 12 12 12
17 17 17 17 17 17 17 17 17 17 17 16 16 16 16 16 16 16 15 15 15 15 15 14 14 14 14 14 14 14 14 13 13 13 13 12 12 12 12 12 12 11 11
16 16 16 16 16 16 17 17 16 16 16 16 16 16 15 15 15 15 15 14 14 14 14 14 13 13 13 13 13 13 13 13 12 12 12 12 11 11 11 11 11 10 10
14 15 15 15 15 15 16 16 15 15 15 15 15 15 15 14 14 14 14 14 13 13 13 13 13 12 12 12 12 12 12 12 12 11 11 11 10 10 10 10 10 10 10
14 14 14 14 14 14 14 15 14 14 14 14 14 14 14 13 13 13 13 13 13 13 12 12 12 12 11 11 11 11 11 11 11 10 10 10 10 9 9 9 9 9 8
13 13 13 13 13 13 13 13 13 14 14 13 13 13 13 13 13 12 12 12 12 12 12 11 11 11 11 10 10 10 10 10 9 9 9 9 9 9 8 8 8 8 8
12 12 12 12 12 12 12 12 13 13 13 13 12 12 12 12 12 12 11 11 11 10 10 10 10 10 10 9 9 9 9 9 9 9 8 8 8 7 7 7 7 7 7
Wind_Speed
9 10 11 12 12 12 13 14 14 13 12 9 8 8 6 6 5 5 10 12 11 11 9 5 4 4 4 4 4 3 3 2 2 3 3 3 2 1 2 3 4 6 10
9 10 11 11 12 13 13 13 13 13 12 10 8 6 6 5 5 4 7 11 11 11 9 6 5 5 5 5 4 3 3 1 2 4 3 2 4 3 1 1 4 4 6
14 13 12 12 12 13 14 14 13 13 11 10 8 7 5 4 4 4 5 6 10 10 9 8 6 5 5 4 4 4 4 2 0 2 4 4 3 2 3 1 2 3 4
12 11 11 11 12 12 12 11 12 12 11 11 11 12 8 7 6 6 5 5 8 9 10 9 7 5 4 5 4 4 3 4 2 1 0 2 4 3 1 3 2 2 4
12 12 12 11 11 11 12 11 11 11 10 11 12 12 8 6 5 6 7 6 5 7 9 9 7 5 4 5 5 4 4 3 3 2 1 1 2 2 3 2 2 2 3
11 10 9 9 9 10 11 11 12 11 11 11 12 12 11 9 9 8 8 6 4 4 6 8 7 6 5 5 5 5 5 4 4 3 2 3 2 2 3 3 3 3 4
11 11 10 10 10 11 11 11 12 11 11 11 11 11 11 11 11 9 9 8 5 4 6 6 5 5 5 5 5 5 4 4 4 3 2 2 3 3 3 3 2 2 3
11 12 12 11 11 12 12 11 12 10 11 11 10 10 10 8 7 8 8 8 7 6 6 6 6 7 7 6 5 4 4 4 4 4 3 2 1 2 3 4 4 1 2
11 11 10 10 10 11 11 12 12 10 10 11 9 9 9 9 8 8 7 6 6 6 7 7 7 6 7 6 6 4 4 4 4 3 3 2 1 1 2 3 4 5 2
10 10 10 10 10 10 10 11 11 11 9 10 10 9 9 9 8 8 8 7 7 6 8 7 7 7 7 6 6 4 4 5 4 3 3 2 1 1 1 2 2 3 4
10 9 9 9 9 9 10 10 10 9 9 9 8 8 8 8 8 8 8 8 7 8 8 8 8 8 7 7 7 6 6 6 5 3 4 4 3 2 1 1 2 2 3
10 10 9 9 9 9 10 10 10 10 10 9 8 8 8 8 8 8 8 8 8 8 9 8 8 8 8 7 8 7 7 7 6 6 4 5 3 3 1 1 1 1 2
9 8 8 9 9 10 10 10 10 10 10 9 9 8 8 9 9 8 8 8 8 8 7 7 8 8 8 8 8 7 6 7 7 6 6 5 4 4 3 2 2 2 1
9 9 9 9 9 9 10 10 10 9 10 10 9 9 9 9 9 8 8 8 8 8 8 7 7 7 7 7 7 6 6 5 5 5 5 5 6 6 5 4 4 3 2
8 9 9 9 9 9 9 10 10 9 10 10 10 10 9 8 8 8 8 8 8 9 8 6 5 5 5 6 6 6 6 5 4 3 3 4 5 6 5 4 4 3 3
7 7 7 8 9 10 10 10 10 10 9 10 10 9 8 8 8 8 7 7 7 6 6 6 6 5 4 5 7 6 5 4 4 3 2 2 2 3 4 4 4 5 4
8 8 7 8 8 9 10 10 9 8 9 9 8 7 8 8 8 8 7 7 7 6 6 6 5 5 4 6 7 8 5 4 4 4 3 2 2 3 2 3 3 3 3
6 5 5 5 6 6 7 8 8 9 9 8 8 8 7 7 6 7 7 6 5 5 5 5 4 3 3 4 5 6 5 4 3 3 3 3 2 1 2 2 1 2 3
5 4 4 5 5 6 7 8 8 8 8 8 8 8 8 7 7 7 6 5 5 5 4 4 4 3 2 2 3 4 3 3 2 2 2 2 1 1 1 2 1 2 3
5 5 4 6 6 5 7 9 8 8 7 7 7 7 7 7 7 7 6 5 5 6 6 5 5 5 4 5 5 5 4 4 2 2 3 3 2 2 2 2 1 1 3
7 6 6 6 5 6 8 9 8 7 6 6 7 7 7 8 8 7 6 7 7 8 7 7 6 6 5 6 7 7 4 3 3 2 2 2 4 5 4 3 1 1 2
8 8 8 7 6 7 10 11 9 8 9 10 10 8 8 7 8 9 8 8 9 9 7 7 7 6 6 7 7 9 8 6 4 3 2 3 5 6 6 4 4 5 4
8 8 9 10 9 8 10 12 9 9 11 12 12 11 11 10 9 9 9 8 8 8 7 7 7 6 6 7 11 11 9 9 5 4 5 6 7 6 6 7 7 6 4
9 9 11 12 11 10 11 11 9 10 12 13 11 11 12 11 11 9 8 8 8 8 8 8 7 6 6 6 6 6 6 8 7 6 7 9 10 9 8 7 6 5 4
9 10 11 12 11 11 11 10 10 12 13 12 11 11 11 11 11 11 9 9 7 7 9 7 6 7 6 5 6 5 5 4 5 5 6 7 6 7 7 6 6 5 5
10 11 11 11 11 11 11 10 9 11 13 11 10 9 9 9 10 12 12 16 13 15 14 11 10 7 8 9 12 12 12 12 11 9 7 7 6 6 6 6 6 5 6
Wind_Direction
167 160 158 157 153 155 159 161 161 163 159 157 158 157 160 163 162 162 159 158 156 153 149 145 141 137 138 149 139 119 105 96 112 85 46 7 6 156 175 177 180 194 201
158 162 163 162 165 165 165 165 167 169 168 165 163 156 153 160 164 158 159 160 158 158 160 150 151 146 138 135 131 122 117 89 114 121 99 36 353 346 337 181 187 193 190
167 168 168 170 169 172 173 174 173 170 167 159 147 138 128 127 141 155 164 167 161 161 158 157 152 149 147 152 150 137 133 137 73 136 141 144 207 287 326 292 197 180 183
164 167 168 171 175 176 173 169 171 168 165 160 159 157 162 166 175 169 167 166 162 162 162 158 155 150 149 155 160 146 140 138 137 34 144 163 154 150 265 321 302 211 200
167 168 172 175 173 170 171 168 168 166 166 167 165 165 167 168 157 156 159 165 163 165 165 161 154 151 153 159 152 137 134 138 146 153 142 102 92 121 143 222 287 300 252
164 165 165 161 164 168 173 169 169 172 172 171 169 171 171 166 161 165 168 166 161 166 165 162 157 159 159 162 158 146 140 143 144 143 139 147 151 180 160 182 223 244 265
163 163 163 164 165 172 174 170 171 174 176 174 174 175 173 170 171 171 171 166 166 173 179 167 162 163 169 169 158 152 156 158 153 159 161 164 181 177 161 156 186 235 278
165 166 170 169 171 175 173 168 171 172 172 172 175 175 172 171 172 174 171 173 177 180 176 170 171 172 172 172 161 157 170 168 164 165 161 166 187 169 165 160 151 151 306
167 167 168 170 170 170 171 172 171 170 173 174 173 170 171 171 173 171 168 172 175 178 176 173 176 179 177 171 164 171 182 171 174 178 178 186 208 157 165 160 157 153 184
160 163 166 171 173 171 170 170 171 173 174 172 176 176 173 175 174 170 172 174 176 173 170 174 178 181 180 175 171 172 183 180 189 190 184 194 207 178 128 141 151 154 164
163 162 165 167 170 166 164 167 170 168 171 173 171 168 172 173 173 177 179 178 178 176 178 180 180 181 181 180 179 187 186 190 204 208 201 215 202 185 161 134 136 151 159
160 163 163 163 161 164 167 169 172 174 177 173 166 167 168 170 175 181 182 179 179 181 181 179 182 188 187 184 186 196 196 197 206 214 208 222 211 202 207 180 190 199 189
153 158 162 163 166 167 167 170 176 178 176 170 168 168 170 175 181 184 183 179 177 176 177 175 185 191 191 191 193 195 196 200 206 206 203 211 196 210 218 210 212 228 218
151 159 170 170 169 170 170 171 174 175 173 171 173 176 180 183 185 182 180 179 175 174 177 180 185 191 191 192 194 192 194 195 202 204 201 203 196 204 209 214 219 218 224
153 162 171 174 172 170 171 174 175 173 171 171 179 186 182 179 179 177 176 176 178 179 175 175 177 180 183 192 188 187 189 188 196 206 210 217 210 207 204 211 215 212 220
163 160 163 168 175 177 176 174 177 176 172 176 183 184 177 176 178 179 177 176 175 169 161 169 173 174 191 187 183 183 187 181 186 202 219 226 216 213 202 203 196 191 203
157 163 167 173 180 180 173 174 173 166 166 173 177 175 176 179 181 180 171 174 175 165 162 174 172 178 193 186 180 180 175 170 182 192 195 215 214 201 199 216 212 207 216
137 156 159 162 167 165 162 161 158 160 163 167 170 170 168 173 170 165 169 176 168 165 167 168 174 178 201 186 176 176 168 164 178 186 184 191 225 210 189 190 213 249 260
125 137 148 148 143 151 158 154 156 159 162 168 171 172 170 167 163 164 167 161 146 144 142 143 146 138 105 113 137 148 138 132 128 118 115 138 137 336 160 135 206 292 302
92 102 118 126 128 142 147 144 150 149 156 162 161 157 154 152 153 154 147 138 134 131 123 105 97 102 88 74 92 121 122 118 104 74 63 70 77 51 86 118 134 298 302
78 81 86 100 116 128 128 126 125 130 133 126 120 121 126 127 128 123 117 116 114 110 106 99 84 80 78 71 76 91 102 114 108 87 51 29 46 55 59 72 74 315 322
71 78 86 81 80 99 112 108 105 106 104 102 100 98 99 108 114 110 106 107 109 105 101 97 82 63 56 60 68 74 76 79 87 71 50 43 47 52 50 49 35 33 32
77 75 83 83 77 81 100 105 101 101 101 97 94 92 87 83 89 100 105 102 100 103 99 92 85 66 50 47 54 58 59 63 74 70 63 55 50 52 49 45 40 39 36
83 81 83 84 82 80 85 93 97 99 98 98 96 94 92 86 79 79 85 93 97 101 97 93 89 76 56 45 42 46 53 56 62 63 58 57 56 52 43 37 37 38 37
85 83 84 86 85 84 82 82 88 95 95 94 94 92 92 94 87 79 70 80 74 97 104 102 101 94 74 43 51 65 61 60 67 70 60 52 47 43 36 33 30 28 28
93 89 85 84 83 85 85 81 84 97 101 98 96 96 97 96 97 96 81 63 77 80 85 93 99 84 86 77 69 68 69 70 75 75 66 58 51 45 37 33 25 23 19
Height
1484 1487 1489 1492 1495 1498 1501 1504 1507 1512 1516 1520 1524 1528 1532 1536 1539 1543 1546 1548 1551 1553 1555 1557 1558 1560 1562 1563 1565 1566 1567 1569 1570 1571 1572 1573 1574 1575 1575 1576 1576 1576 1577
1483 1485 1488 1490 1493 1495 1499 1502 1505 1509 1514 1518 1522 1527 1531 1535 1538 1542 1544 1547 1549 1552 1554 1555 1557 1559 1560 1562 1564 1565 1566 1568 1569 1570 1571 1573 1575 1574 1575 1575 1575 1576 1576
1479 1482 1485 1488 1491 1494 1497 1499 1503 1507 1512 1516 1521 1526 1530 1534 1537 1540 1542 1545 1548 1550 1552 1554 1556 1557 1559 1561 1562 1564 1565 1567 1568 1570 1571 1572 1572 1573 1574 1574 1575 1575 1576
1479 1481 1484 1487 1489 1492 1495 1498 1501 1505 1509 1514 1518 1522 1526 1530 1533 1537 1540 1544 1546 1549 1551 1553 1555 1557 1558 1559 1561 1562 1564 1566 1567 1568 1570 1571 1571 1572 1573 1574 1574 1574 1575
1478 1480 1483 1485 1488 1491 1494 1497 1500 1503 1507 1512 1516 1520 1525 1528 1532 1535 1539 1542 1545 1547 1549 1552 1553 1555 1557 1558 1560 1561 1563 1564 1566 1567 1568 1569 1570 1571 1572 1572 1573 1573 1574
1477 1480 1483 1486 1488 1490 1493 1495 1497 1501 1506 1510 1514 1518 1522 1526 1530 1533 1536 1539 1542 1545 1548 1550 1552 1554 1555 1557 1558 1560 1561 1563 1565 1566 1567 1568 1569 1570 1570 1571 1571 1572 1572
1477 1479 1482 1485 1487 1489 1492 1494 1496 1499 1503 1507 1511 1515 1520 1524 1527 1531 1534 1537 1540 1543 1546 1548 1550 1552 1553 1555 1556 1558 1560 1561 1563 1564 1566 1567 1568 1568 1569 1569 1570 1570 1571
1476 1478 1481 1483 1485 1487 1490 1492 1495 1498 1501 1505 1509 1513 1517 1522 1525 1529 1532 1535 1538 1541 1544 1546 1548 1550 1551 1553 1554 1556 1558 1559 1561 1563 1564 1565 1566 1567 1567 1568 1568 1568 1569
1475 1478 1480 1483 1485 1486 1488 1491 1494 1497 1500 1504 1508 1511 1515 1519 1523 1526 1530 1533 1536 1539 1542 1544 1546 1548 1549 1551 1552 1554 1555 1557 1559 1560 1562 1563 1564 1565 1565 1566 1567 1567 1567
1475 1478 1479 1481 1484 1486 1488 1491 1493 1496 1499 1502 1506 1509 1513 1517 1521 1524 1527 1531 1534 1537 1539 1541 1543 1545 1547 1549 1550 1552 1554 1555 1556 1558 1559 1560 1562 1563 1563 1564 1564 1565 1565
1474 1477 1479 1481 1483 1485 1487 1490 1493 1496 1498 1501 1504 1507 1511 1515 1519 1522 1525 1528 1532 1534 1537 1539 1541 1543 1544 1546 1548 1550 1551 1553 1554 1555 1556 1558 1559 1560 1561 1561 1562 1562 1562
1474 1477 1479 1481 1483 1485 1487 1489 1492 1494 1497 1500 1503 1506 1509 1513 1516 1519 1523 1526 1529 1532 1534 1536 1538 1540 1542 1543 1545 1547 1549 1551 1552 1553 1554 1555 1556 1557 1558 1559 1559 1559 1560
1474 1477 1480 1481 1482 1484 1486 1488 1491 1493 1496 1499 1502 1505 1508 1511 1514 1517 1521 1524 1527 1529 1532 1534 1535 1537 1538 1540 1542 1545 1547 1548 1549 1551 1552 1553 1554 1554 1555 1556 1556 1556 1557
1472 1476 1479 1480 1482 1484 1486 1487 1490 1493 1495 1498 1501 1503 1506 1509 1512 1516 1519 1522 1524 1527 1529 1531 1532 1533 1535 1537 1539 1542 1544 1545 1547 1548 1549 1550 1551 1551 1552 1552 1553 1553 1553
1472 1474 1476 1479 1481 1483 1485 1487 1489 1492 1495 1497 1499 1502 1505 1508 1511 1514 1517 1520 1523 1525 1527 1529 1529 1531 1532 1534 1537 1539 1541 1542 1544 1545 1546 1547 1548 1548 1549 1549 1549 1549 1549
1471 1473 1475 1477 1480 1482 1484 1486 1488 1491 1494 1496 1498 1501 1504 1507 1510 1513 1515 1518 1521 1523 1525 1526 1528 1529 1531 1532 1534 1537 1538 1539 1540 1542 1543 1543 1544 1544 1545 1545 1545 1545 1545
1469 1472 1474 1475 1478 1480 1482 1485 1487 1490 1492 1495 1497 1500 1503 1505 1508 1511 1514 1516 1518 1520 1522 1525 1526 1527 1529 1531 1532 1534 1535 1536 1537 1538 1539 1540 1540 1541 1541 1541 1541 1541 1540
1469 1471 1473 1475 1477 1480 1482 1484 1487 1489 1491 1493 1496 1498 1501 1504 1506 1509 1511 1513 1516 1518 1520 1522 1524 1525 1527 1528 1529 1530 1532 1532 1533 1534 1535 1536 1536 1537 1537 1537 1536 1536 1536
1469 1470 1472 1474 1476 1478 1480 1483 1484 1487 1489 1491 1493 1496 1499 1501 1504 1506 1508 1510 1513 1515 1517 1519 1521 1523 1524 1525 1526 1528 1528 1529 1530 1531 1532 1532 1532 1533 1533 1533 1533 1532 1532
1468 1469 1471 1472 1474 1476 1478 1480 1483 1485 1487 1489 1492 1494 1497 1499 1501 1503 1506 1508 1511 1513 1515 1516 1518 1520 1521 1522 1523 1525 1525 1526 1527 1528 1528 1529 1529 1529 1529 1529 1529 1528 1528
1468 1468 1469 1471 1472 1474 1477 1479 1481 1483 1486 1488 1491 1493 1495 1497 1499 1502 1504 1506 1508 1510 1512 1514 1516 1517 1519 1520 1521 1522 1523 1524 1525 1525 1526 1526 1526 1526 1526 1526 1525 1525 1525
1468 1468 1468 1470 1472 1474 1476 1478 1480 1483 1485 1487 1489 1492 1494 1496 1498 1501 1503 1505 1507 1509 1510 1512 1514 1516 1518 1519 1519 1520 1522 1522 1523 1523 1524 1524 1524 1523 1523 1523 1522 1522 1521
1470 1471 1471 1472 1473 1475 1477 1478 1481 1483 1485 1487 1489 1491 1494 1496 1498 1500 1503 1505 1507 1509 1511 1512 1514 1515 1517 1517 1518 1519 1520 1520 1521 1522 1522 1522 1522 1521 1521 1520 1520 1519 1518
1472 1473 1474 1474 1475 1477 1479 1480 1482 1485 1486 1488 1490 1492 1495 1497 1499 1501 1503 1505 1507 1509 1512 1514 1515 1516 1517 1518 1518 1519 1520 1520 1521 1521 1521 1521 1520 1520 1519 1519 1518 1517 1516
1474 1475 1476 1477 1478 1480 1481 1483 1485 1487 1488 1491 1493 1495 1498 1500 1501 1503 1505 1507 1509 1511 1513 1515 1516 1517 1518 1519 1519 1519 1520 1520 1521 1521 1521 1520 1520 1519 1519 1518 1517 1516 1515
1477 1478 1480 1480 1482 1483 1485 1487 1489 1491 1492 1494 1496 1498 1501 1503 1504 1505 1508 1511 1513 1515 1516 1518 1518 1518 1520 1520 1521 1521 1521 1522 1522 1522 1521 1520 1520 1519 1519 1518 1516 1515 1513